Tracking 18840 objects as of 19-November-2017
HD Live streaming from Space Station
objects crossing your sky now

FENGYUN 1C DEB

Track FENGYUN 1C DEB now!
10-day predictions


NORAD ID: 30301
Int'l Code: 1999-025ZN
Perigee: 778.2 km
Apogee: 956.0 km
Inclination: 98.6 °
Period: 102.1 minutes
Semi major axis: 7238 km
RCS: 0.0201 m2 (small)
Launch date: May 10, 1999
Source: People's Republic of China (PRC)
Launch site: Taiyaun Space Center, China (TSC)

Note: This is SATELLITE DEBRIS
aabbcc
Your satellite tracking list
Your tracking list is empty




NASA's NSSDC Master Catalog

Two Line Element Set (TLE):
1 30301U 99025ZN  17323.20091471  .00001246  00000-0  68233-3 0  9990
2 30301  98.5769 150.5549 0122835 145.1000 268.3354 14.09829735554579
Source of the keplerian elements: AFSPC